TimeCST,TemperatureF,Dew PointF,Humidity,Sea Level PressureIn,VisibilityMPH,Wind Direction,Wind SpeedMPH,Gust SpeedMPH,PrecipitationIn,Events,Conditions,WindDirDegrees,DateUTC
12:53 AM,61.0,57.9,90,29.94,10.0,South,5.8,-,N/A,,Clear,170,2012-12-09 06:53:00
1:53 AM,61.0,57.9,90,29.95,10.0,SSE,4.6,-,N/A,,Overcast,160,2012-12-09 07:53:00
2:53 AM,55.0,55.0,100,29.95,10.0,Calm,Calm,-,N/A,,Partly Cloudy,0,2012-12-09 08:53:00
3:53 AM,57.0,55.0,93,29.95,10.0,SSE,5.8,-,N/A,,Partly Cloudy,160,2012-12-09 09:53:00
4:53 AM,59.0,55.9,90,29.96,10.0,SSE,4.6,-,N/A,,Clear,160,2012-12-09 10:53:00
5:53 AM,59.0,57.0,93,29.97,10.0,SSE,5.8,-,N/A,,Clear,150,2012-12-09 11:53:00
6:53 AM,55.9,55.0,97,29.99,8.0,SSE,4.6,-,N/A,,Clear,150,2012-12-09 12:53:00
7:53 AM,61.0,59.0,93,30.00,6.0,South,3.5,-,N/A,,Partly Cloudy,170,2012-12-09 13:53:00
8:31 AM,62.6,60.8,94,29.98,10.0,South,5.8,-,N/A,,Mostly Cloudy,170,2012-12-09 14:31:00
8:53 AM,64.9,62.1,90,30.00,10.0,SSE,5.8,-,N/A,,Mostly Cloudy,160,2012-12-09 14:53:00
9:05 AM,64.4,62.6,94,29.98,10.0,South,8.1,-,N/A,,Mostly Cloudy,170,2012-12-09 15:05:00
9:53 AM,68.0,63.0,84,30.00,10.0,South,12.7,-,N/A,,Overcast,170,2012-12-09 15:53:00
10:16 AM,71.6,64.4,78,29.98,10.0,South,13.8,17.3,N/A,,Mostly Cloudy,170,2012-12-09 16:16:00
10:34 AM,71.6,64.4,78,29.97,10.0,South,13.8,-,N/A,,Mostly Cloudy,170,2012-12-09 16:34:00
10:53 AM,72.0,64.0,76,29.99,10.0,SSE,11.5,-,N/A,,Mostly Cloudy,160,2012-12-09 16:53:00
11:53 AM,71.1,64.9,81,29.96,9.0,South,11.5,-,0.00,Rain,Light Rain,180,2012-12-09 17:53:00
12:53 PM,73.0,64.9,76,29.92,10.0,South,6.9,-,0.00,,Overcast,180,2012-12-09 18:53:00
1:53 PM,73.9,66.0,76,29.90,10.0,South,9.2,-,N/A,,Overcast,180,2012-12-09 19:53:00
2:00 PM,73.4,64.4,73,29.88,10.0,South,9.2,-,N/A,,Overcast,190,2012-12-09 20:00:00
2:26 PM,73.4,64.4,73,29.88,10.0,South,8.1,-,N/A,,Overcast,190,2012-12-09 20:26:00
2:49 PM,75.2,66.2,73,29.87,10.0,South,9.2,-,N/A,,Mostly Cloudy,180,2012-12-09 20:49:00
2:53 PM,73.9,64.9,73,29.89,10.0,South,11.5,-,N/A,,Mostly Cloudy,180,2012-12-09 20:53:00
3:53 PM,73.0,66.0,79,29.87,10.0,SSE,4.6,-,N/A,,Scattered Clouds,160,2012-12-09 21:53:00
4:53 PM,71.1,66.0,84,29.87,10.0,South,4.6,-,N/A,,Mostly Cloudy,170,2012-12-09 22:53:00
5:53 PM,69.1,64.9,87,29.87,10.0,SSE,5.8,-,0.00,,Clear,150,2012-12-09 23:53:00
6:53 PM,69.1,66.0,90,29.86,10.0,SSE,4.6,-,N/A,,Clear,160,2012-12-10 00:53:00
7:53 PM,69.1,66.0,90,29.85,10.0,SSE,5.8,-,N/A,,Partly Cloudy,160,2012-12-10 01:53:00
8:53 PM,70.0,66.0,87,29.85,10.0,South,6.9,-,N/A,,Mostly Cloudy,170,2012-12-10 02:53:00
9:53 PM,70.0,64.9,84,29.86,10.0,South,10.4,-,N/A,,Overcast,180,2012-12-10 03:53:00
10:53 PM,71.1,66.0,84,29.87,10.0,South,9.2,-,N/A,,Mostly Cloudy,190,2012-12-10 04:53:00
11:25 PM,71.6,66.2,83,29.86,10.0,SSW,10.4,-,N/A,,Overcast,210,2012-12-10 05:25:00
11:38 PM,71.6,66.2,83,29.86,10.0,SSW,5.8,-,N/A,Thunderstorm,Overcast,210,2012-12-10 05:38:00
11:53 PM,64.9,60.1,84,29.90,4.0,West,18.4,29.9,0.05,Rain-Thunderstorm,Rain,270,2012-12-10 05:53:00
11:55 PM,64.4,60.8,88,29.88,2.5,West,15.0,29.9,0.03,Rain-Thunderstorm,Heavy Rain,270,2012-12-10 05:55:00
11:57 PM,62.6,60.8,94,29.88,1.5,West,16.1,29.9,0.11,Rain-Thunderstorm,Heavy Rain,260,2012-12-10 05:57:00